Kharkiv, Ukraine

2:29 AM EEST on September 18, 2019 (GMT +0300)
Osnova

Weather History for UKHH - August, 2019

Change the Weather History Date:

Sunday, August 25, 2019

  Actual Average (WUND) Record (WUND)
Temperature  
Mean Temperature 72 °F -  
Max Temperature 84 °F - - (-1)
Min Temperature 60 °F - - (-1)
Cooling Degree Days 7    
Growing Degree Days 22 (Base 50)    
Moisture  
Dew Point 44 °F    
Average Humidity 34    
Maximum Humidity 63    
Minimum Humidity 12    
Precipitation  
Precipitation 0.00 in 0.06 in - ()
Sea Level Pressure  
Sea Level Pressure 30.21 in    
Wind  
Wind Speed 7 mph ()    
Max Wind Speed 13 mph    
Max Gust Speed -    
Visibility 6.0 miles    
Events      
Averages and records for this station are not official NWS values.
T = Trace of Precipitation, MM = Missing Value Source: Averaged Metar Reports

Daily Weather History Graph

Daily Weather History Graph

Search for Another Location

Airport or City:

Astronomy

Aug. 25, 2019 Rise Set
Actual Time 5:38 AM EEST 7:34 PM EEST
Civil Twilight 5:04 AM EEST 8:08 PM EEST
Nautical Twilight 4:21 AM EEST 8:51 PM EEST
Astronomical Twilight 3:33 AM EEST 9:38 PM EEST
Moon No Moon Rise 3:52 PM EEST (8/25)
Length of Visible Light 15h 04m
Length of Day
13h 55m
Waning Crescent, 32% of the Moon is Illuminated
Aug 25
Waning Crescent
Aug 30
New
Sep 6
First Quarter
Sep 14
Full
Sep 22
Last Quarter

Hourly Weather History & Observations

Time (EEST) Temp. Dew Point Humidity Pressure Visibility Wind Dir Wind Speed Gust Speed Precip Events Conditions
12:00 AM 72 °F 51 °F 37% 30.18 in 6 mi NNE 8.9 mph - -  
12:00 AM 71.6 °F 48.2 °F 43% 30.18 in - NNE 8.9 mph - N/A   Clear
12:30 AM 71.6 °F 46.4 °F 41% 30.18 in - NNE 8.9 mph - N/A   Clear
1:00 AM 71.6 °F 48.2 °F 43% 30.18 in - NNE 8.9 mph - N/A   Clear
1:30 AM 69.8 °F 46.4 °F 43% 30.18 in - NNE 8.9 mph - N/A   Clear
2:30 AM 68.0 °F 46.4 °F 46% 30.21 in - NNE 6.7 mph - N/A   Clear
3:00 AM 67 °F 49 °F 41% 30.19 in 6 mi North 4.5 mph - -  
3:00 AM 66.2 °F 46.4 °F 49% 30.21 in - North 4.5 mph - N/A   Clear
3:30 AM 64.4 °F 48.2 °F 56% 30.21 in - North 4.5 mph - N/A   Clear
4:30 AM 62.6 °F 48.2 °F 59% 30.21 in - North 4.5 mph - N/A   Clear
5:30 AM 60.8 °F 48.2 °F 63% 30.21 in - North 6.7 mph - N/A   Clear
6:00 AM 60.8 °F 48.2 °F 63% 30.21 in - North 6.7 mph - N/A   Clear
6:30 AM 62.6 °F 48.2 °F 59% 30.21 in - North 6.7 mph - N/A   Clear
8:00 AM 68.0 °F 46.4 °F 46% 30.24 in - North 4.5 mph - N/A   Clear
8:30 AM 69.8 °F 42.8 °F 38% 30.24 in - North 4.5 mph - N/A   Clear
9:00 AM 72 °F 47 °F 29% 30.23 in 6 mi North 6.7 mph - -  
9:00 AM 73.4 °F 41.0 °F 31% 30.24 in - North 4.5 mph - N/A   Clear
9:30 AM 75.2 °F 41.0 °F 29% 30.24 in - NNE 4.5 mph - N/A   Clear
10:00 AM 77.0 °F 41.0 °F 28% 30.24 in - NNE 6.7 mph - N/A   Clear
10:30 AM 78.8 °F 39.2 °F 24% 30.24 in - North 6.7 mph - N/A   Clear
11:00 AM 78.8 °F 37.4 °F 23% 30.24 in - North 8.9 mph - N/A   Clear
11:30 AM 80.6 °F 39.2 °F 23% 30.24 in - North 8.9 mph - N/A   Clear
12:00 PM 81 °F 38 °F 12% 30.21 in 6 mi North 11.2 mph - -  
1:00 PM 82.4 °F 37.4 °F 20% 30.21 in - North 8.9 mph - N/A   Clear
1:30 PM 82.4 °F 37.4 °F 20% 30.21 in - NNE 11.2 mph - N/A   Clear
2:00 PM 82.4 °F 35.6 °F 19% 30.21 in - North 8.9 mph - N/A   Clear
2:30 PM 82.4 °F 35.6 °F 19% 30.21 in - NNE 11.2 mph - N/A   Clear
3:00 PM 83 °F 40 °F 13% 30.19 in 6 mi North 8.9 mph - -  
3:00 PM 84.2 °F 37.4 °F 19% 30.21 in - NNE 11.2 mph - N/A   Clear
3:30 PM 84.2 °F 37.4 °F 19% 30.21 in - NNE 8.9 mph - N/A   Clear
4:00 PM 84.2 °F 39.2 °F 20% 30.21 in - North 8.9 mph - N/A   Clear
5:00 PM 82.4 °F 39.2 °F 21% 30.21 in - NNE 13.4 mph - N/A   Clear
6:00 PM 81 °F 44 °F 17% 30.19 in 6 mi North 11.2 mph - -  
6:00 PM 80.6 °F 41.0 °F 24% 30.21 in - NNE 11.2 mph - N/A   Clear
6:30 PM 80.6 °F 42.8 °F 26% 30.21 in - NNE 8.9 mph - N/A   Clear
7:30 PM 77.0 °F 44.6 °F 32% 30.21 in - NNE 8.9 mph - N/A   Clear
8:30 PM 75.2 °F 46.4 °F 36% 30.24 in - NNE 8.9 mph - N/A   Clear
9:00 PM 75 °F 50 °F 30% 30.23 in 6 mi NNE 8.9 mph - -  
9:00 PM 75.2 °F 50.0 °F 41% 30.24 in - NNE 8.9 mph - N/A   Clear
11:30 PM 71.6 °F 50.0 °F 46% 30.27 in - NE 11.2 mph - N/A   Clear